Location: Unspecified
(0.0000°N, 0.0000°E)
Time: 08:43:04
(UTC+00:00)

deb r/b Ablestar - Pass Details

Date: 15 February 2026
Orbit: 888 x 1147 km, 67.2° (Epoch: 14 March)

Event Time Altitude Azimuth Distance (km) Brightness Sun altitude
Exits shadow 04:07:11 13° 6° (N) 2,760 ? -30.9°
Maximum altitude 04:13:05 40° 72° (ENE) 1,613 ? -29.5°
Drops below altitude 10° 04:19:45 10° 138° (SE) 3,039 ? -27.8°
Sets 04:22:39 0° 145° (SE) 4,000 ? -27.1°
